www.pogodaiklimat.ru

Погода и климат >> Архив погоды >> Индонезия >> Неира


ПОГОДА в Неира

  • Прогноз погоды в Неира
  • Монитор погоды в Неира

АРХИВ ПОГОДЫ в Неира

Время (UTC), дата Ветер
(напр.,м/с)
 
Видим.   Явления Облачность Т
(С)
Тd
(С)
f
(%)
Тe
(С)
Тes
(С)
Комфортность P
(гПа)
Po
(гПа)
Тmin
(С)
Tmax
(С)
R
(мм)
R24
(мм)
S
(см)
21 15.09 штиль 0 9000 м 9/6 570 м
[Cu Sc Ac As Ci sp]
+24.4 +22.6 90 +32 +32 очень
душно
1012.9 1010.9
00 16.09 СЗ 2 8000 м 8/5 600 м
[Cu med, cong Ac trans Ci fib]
+28.0 +22.1 70 +36 +39 очень
душно
1014.1 1012.1 +24.2
03 16.09 З 5 10 км 8/5 600 м
[Cu med, cong Ac trans Ci fib]
+29.2 +22.5 67 +38 +43 очень
душно
1013.0 1010.9
06 16.09 ЮЗ 5 12 км 8/5 600 м
[Cu med, cong Ac trans]
+28.8 +23.3 72 +39 +41 очень
душно
1011.2 1009.1
09 16.09 З 4 10 км 3/1 600 м
[Cu hum Ac trans Ci fib]
+26.3 +22.6 80 +35 +35 очень
душно
1010.8 1008.7
12 16.09 ЮВ 2 10 км 9/8 600 м
[Cu med, cong Ci fib]
+25.6 +22.7 84 +34 +34 очень
душно
1012.7 1010.7 +30.0
21 16.09 ЮВ 2 10 км 9/8 600 м
[Cu Sc Ci fib]
+25.2 +22.6 86 +33 +33 очень
душно
1012.5 1010.5
00 17.09 СВ 3 8000 м слаб. дождь 9/8 600 м
[Cu med, cong Ac trans Ci fib]
+26.8 +23.0 80 +36 +37 очень
душно
1014.6 1012.6 +25.0 0.0
03 17.09 СВ 4 8000 м в посл. час дождь 9/8 600 м
[Cu med, cong Ac trans]
+27.8 +22.5 73 +37 +39 очень
душно
1013.6 1011.6 0.0
06 17.09 З 3 10 км {дождь} 8/5 600 м
[Cu hum Ac trans]
+27.2 +23.0 78 +36 +40 очень
душно
1012.2 1010.1 0.0
09 17.09 СВ 1 9000 м 8/5 600 м
[Cu hum Ac trans Ci fib]
+26.6 +22.2 77 +35 +35 очень
душно
1012.8 1010.7
12 17.09 ЮЗ 1 9000 м 6/4 600 м
[Cu hum Ac trans Ci sp]
+25.6 +22.7 84 +34 +34 очень
душно
1014.4 1012.4 +29.0
21 17.09 штиль 0 8000 м 9/8 570 м
[Cu Sc Ac trans Ci sp]
+25.6 +22.7 84 +34 +34 очень
душно
1014.1 1012.1
00 18.09 Ю 2 8000 м 8/5 600 м
[Cu med, cong Ac trans Ci fib]
+28.2 +22.4 71 +37 +40 очень
душно
1015.5 1013.5 +25.0 0.0
03 18.09 ЮВ 2 8000 м 9/8 600 м
[Cu med, cong Ac trans]
+28.2 +22.7 72 +37 +40 очень
душно
1014.1 1012.0
06 18.09 ЮЗ 3 7000 м в посл. час дождь 9/8 600 м
[Cu med, cong As trans]
+26.2 +21.8 77 +34 +35 очень
душно
1012.4 1010.3 0.0
09 18.09 С 1 7000 м 9/6 480 м
[Cu med, cong As trans]
+26.0 +22.8 83 +35 +35 очень
душно
1013.1 1011.0
12 18.09 В 1 8000 м 8/5 600 м
[Cu med, cong Ac trans Ci fib]
+25.4 +22.8 86 +34 +34 очень
душно
1014.0 1012.0 +29.6
21 18.09 ЮВ 2 8000 м 9/3 600 м
[Cu hum Ac trans]
+25.0 +23.0 89 +33 +33 очень
душно
1013.5 1011.5
00 19.09 З 1 8000 м 9/8 600 м
[Cu med, cong Ac trans]
+28.2 +23.6 76 +38 +40 очень
душно
1014.8 1012.8 +24.4 0.0
03 19.09 З 3 8000 м {дождь} 9/5 600 м
[Cu med, cong Ac trans Ci fib]
+29.0 +23.5 72 +39 +45 очень
душно
1013.2 1011.1 0.3
06 19.09 ЮЗ 2 11 км {дождь} 5/5 600 м
[Cu hum]
+29.2 +23.5 71 +40 +47 очень
душно
1010.9 1008.8 0.3
09 19.09 ЮЗ 1 11 км 4/4 600 м
[Cu hum]
+26.4 +22.9 81 +35 +35 очень
душно
1011.5 1009.4
12 19.09 штиль 0 10 км 4/4 600 м
[Cu hum]
+25.2 +23.2 89 +34 +34 очень
душно
1012.8 1010.8 +30.7
21 19.09 штиль 0 8000 м 9/5 600 м
[Cu Sc Ac As Ci sp]
+24.6 +22.5 88 +32 +32 очень
душно
1012.4 1010.4
00 20.09 ЮЗ 1 8000 м 9/5 570 м
[Cu med, cong Ac As]
+26.0 +23.1 84 +35 +37 очень
душно
1014.2 1012.2 +24.4 0.3
03 20.09 Ю 2 8000 м 10/5 600 м
[Cu med, cong Ac As]
+28.6 +22.2 68 +37 +41 очень
душно
1013.1 1011.0
06 20.09 ЮВ 3 12 км 9/3 600 м
[Cu hum Ac trans]
+28.6 +22.6 70 +38 +42 очень
душно
1011.4 1009.3
09 20.09 СЗ 1 10 км 9/4 600 м
[Cu hum Ac trans]
+26.6 +23.1 81 +36 +36 очень
душно
1012.3 1010.2
12 20.09 В 1 10 км 9/4 600 м
[Cu hum Ac trans Ci fib]
+25.8 +23.2 86 +35 +35 очень
душно
1013.3 1011.3 +30.6
21 20.09 штиль 0 10 км 6/4 600 м
[Cu hum Ac trans Ci fib]
+23.8 +22.6 93 +31 +31 очень
душно
1012.5 1010.5
00 21.09 З 1 8000 м 9/5 600 м
[Cu med, cong Ac trans]
+27.0 +22.6 77 +36 +38 очень
душно
1014.0 1012.0 +23.4
03 21.09 З 4 9000 м 9/4 600 м
[Cu med, cong Ac trans]
+29.8 +23.5 69 +40 +45 очень
душно
1012.9 1010.8
06 21.09 ЮЗ 4 11 км 9/6 600 м
[Cu med, cong Ac As]
+28.8 +23.0 71 +39 +40 очень
душно
1011.6 1009.5
09 21.09 ЮЗ 2 10 км 5/3 600 м
[Cu hum Ac trans Cs]
+26.5 +24.2 87 +37 +37 очень
душно
1011.9 1009.8
12 21.09 штиль 0 10 км 6/5 600 м
[Cu hum Ci sp]
+24.2 +22.4 90 +32 +32 очень
душно
1013.7 1011.7 +30.3
21 21.09 штиль 0 8000 м 6/5 600 м
[Cu Sc Ac trans Ci sp]
+24.2 +22.1 88 +31 +31 очень
душно
1013.4 1011.3
00 22.09 ЮЗ 2 8000 м 8/5 600 м
[Cu med, cong Ac trans Ci fib]
+27.6 +22.6 74 +36 +40 очень
душно
1015.3 1013.2 +22.8
03 22.09 З 2 9000 м 9/5 600 м
[Cu med, cong Ac As]
+29.8 +22.5 65 +39 +44 очень
душно
1014.6 1012.5
06 22.09 ЮЗ 2 10 км 9/5 600 м
[Cu hum Ac As]
+28.5 +22.5 70 +37 +40 очень
душно
1012.4 1010.3
09 22.09 ЮЗ 1 10 км 9/4 600 м
[Cu hum Ac trans]
+26.7 +23.1 81 +36 +36 очень
душно
1012.8 1010.7
12 22.09 Ю 1 10 км 9/4 600 м
[Cu hum Ac trans Ci fib]
+25.4 +22.8 86 +34 +34 очень
душно
1014.7 1012.7 +31.6

 

Местоположение метеостанции Неира (Индонезия): широта -4.53 долгота 129.90 высота над уровнем моря 4 м.

В архиве по умолчанию представлена погода в Неира за последнюю неделю. Архивные данные за месяц целиком и за предыдущие месяцы, начиная с января 2011 года, Вы можете получить, выбрав интересующий диапазон дат из раскрывающегося списка и нажав кнопку "Ввод!".


*Определитесь, кто Вы:
робот инопланетянин человек

Внимание! Время в таблицах - всемирное. Для получения местного времени необходимо прибавить поправку, которая равна 9 ч.

Смотрите также архив погоды в соседних городах и на ближайших метеорологических станциях:

Погода в Гесере (Индонезия) (131 км)
Погода в Амахаи (Индонезия) (173 км)
Погода в Амбоне (Индонезия) (222 км)
Погода в Факфаке (Индонезия) (317 км)
Погода в Туале (Индонезия) (341 км)
Погода в Намлеа (Индонезия) (344 км)
Погода в Саумлаки (Индонезия) (414 км)
Погода в Аэропорту Соронг-Джефман (Индонезия) (422 км)
Погода в Каимана (Индонезия) (438 км)
Погода в Тауне (Индонезия) (503 км)

Пояснения к столбцам:

Ветер - указаны скорость ветра в м/с - средняя за 10 мин, порывы в срок и между сроками (в фигурных скобках) и направление, откуда дует ветер: С - северный, СВ - северо-восточный, В - восточный, ЮВ - юго-восточный, Ю - южный, ЮЗ - юго-западный, З - западный, СЗ - северо-западный.
Видимость - горизонтальная дальность видимости в метрах или километрах. При видимости от 1 до 10 км при отсутствии осадков обычно наблюдается дымка, при ухудшении видимости до 1 км и менее - туман. В сухую погоду видимость может ухудшаться дымом, пылью или мглою.
Явления - указаны атмосферные явления, наблюдавшиеся в срок или в последний час перед сроком; фигурными скобками обозначены явления, наблюдавшиеся между сроками (за 1-3 часа до срока); квадратными скобками обозначены град или гололедные отложения с указанием их диаметра в мм.
Облачность - указаны через наклонную черту общая и нижняя облачность в баллах и высота нижней границы облаков в метрах; квадратными скобками обозначены формы облаков: Ci - перистые, Cs - перисто-слоистые, Cc - перисто-кучевые, Ac - высококучевые, As - высокослоистые, Sc - слоисто-кучевые, Ns - слоисто-дождевые, Cu - кучевые, Cb - кучево-дождевые. Подробнее классификацию облаков см. в Атласе облаков (PDF).
T - Температура воздуха - температура, измеренная на высоте 2 м над землей.
Td - Температура точки росы - температура, при понижении до которой содержащийся в воздухе водяной пар достигнет насыщения.
f - Относительная влажность воздуха - влажноcть воздуха, измеренная на высоте 2 м над землей.
Te - Эффективная температура - температура, которую ощущает одетый по сезону человек в тени. Характеристика душности погоды. При расчете учитывается влияние влажности воздуха и скорости ветра на теплоощущения человека.
Tes - Эффективная температура на солнце - температура, которую ощущает человек, с поправкой на солнечный нагрев. Характеристика знойности погоды. Зависит от высоты солнца над горизонтом, облачности и скорости ветра. Ночью, в пасмурную погоду, а также при ветре 12 м/с и более поправка равна нулю.
P - Атмосферное давление - приведенное к уровню моря атмосферное давление.
Po - Атмосферное давление - измеренное на уровне метеостанции атмосферное давление.
Tmin - Минимальная температура - минимум температуры воздуха на высоте 2 м над землей.
Tmax - Максимальная температура - максимум температуры воздуха на высоте 2 м над землей.
R - Количество осадков - Количество выпавших осадков за период времени, мм. При наведении курсора мыши на число - период времени, за который выпало указанное количество осадков.
R24 - Количество осадков - Количество выпавших осадков за 24 часа, мм.
S - Снежный покров - Высота снежного покрова, см. При наведении курсора мыши на число - состояние снежного покрова и степень покрытия местности в баллах.